Location: Gull Harbor
(47.1000°N, 122.9000°W)
Time: 07:55:41
(UTC-07:00)

Tiangong - Visible Passes

Search period start: 23 September 2023 00:00
Search period end: 03 October 2023 00:00
Orbit: 374 x 385 km, 41.5° (Epoch: 23 September)

Date Brightness Start Highest point End Pass type
(mag) Time Alt. Az. Time Alt. Az. Time Alt. Az.
28 Sep 0.6 20:41:57 10° SSW 20:41:59 10° SSW 20:41:59 10° SSW visible
30 Sep -0.4 20:14:42 10° SSW 20:16:59 19° SSE 20:17:03 19° SSE visible
01 Oct -0.1 20:48:56 10° SW 20:50:26 21° SSW 20:50:26 21° SSW visible
02 Oct -0.6 19:47:30 10° SW 19:50:03 23° SSE 19:51:36 16° SE visible
02 Oct 1.1 21:23:34 10° WSW 21:23:41 11° WSW 21:23:41 11° WSW visible
